[[{"header":{"parameterUnit":"m.s-1","parameterCategory":1,"la1":30.2991,"la2":30.254,"lo1":-89.0895,"lo2":-89.0444,"dy":0.0017,"dx":0.0017,"nx":28,"ny":28,"refTime":"2023-11-06T09:00:00:Z","depth":0,"parameterNumber":2,"parameterNumberName":"U-component_of_WINDS"},"data":[0,0,0,0,0,0,0,0,0,0,0,0,0,0,0,0,0,0,0,0,0,0,0,0,0,0,0,0,0,0,0,0,0,0,0,0,0,0,0,0,0,0,0,0,0,0,0,0,0,0,0,0,0,0,0,0,0,0,-0.1131,-0.1131,0,-0.1125,-0.1125,-0.1125,-0.1168,-0.1169,-0.1171,-0.1172,-0.1165,-0.1164,-0.1162,0,0,0,0,0,0,0,0,0,0,0,0,0,-0.1178,-0.1177,-0.1131,-0.1131,-0.1131,-0.1125,-0.1125,-0.1125,-0.1168,-0.1169,-0.1171,-0.1172,-0.1165,-0.1164,-0.1162,0,0,0,0,0,0,0,0,0,0,0,0,0,-0.1163,-0.1176,-0.1131,-0.1151,-0.1153,-0.1125,-0.1125,-0.1125,-0.1168,-0.1169,-0.1171,-0.1173,-0.1166,-0.1164,-0.1162,-0.1113,0,0,-0.1156,-0.1155,0,0,0,0,0,0,0,0,-0.1164,-0.1161,-0.1148,-0.115,-0.1152,-0.1149,-0.1139,-0.1121,-0.1167,-0.1162,-0.1172,-0.1174,-0.1158,-0.1157,-0.1152,-0.1113,-0.1113,-0.1156,-0.1154,-0.1154,-0.1153,0,0,0,0,0,0,0,-0.1165,-0.1162,-0.1128,-0.1148,-0.115,-0.1161,-0.116,-0.1136,-0.115,-0.1163,-0.1166,-0.1165,-0.1159,-0.1153,-0.1152,-0.1112,-0.1156,-0.1154,-0.1153,-0.1152,-0.103,-0.1028,0,0,0,0,0,0,-0.1163,-0.1162,-0.1129,-0.1128,-0.1163,-0.1158,-0.1158,-0.1148,-0.115,-0.1152,-0.1163,-0.1167,-0.1156,-0.1154,-0.1152,-0.1092,-0.1154,-0.1152,-0.1151,-0.1032,-0.103,-0.1028,0,0,0,0,0,0,-0.1164,-0.116,-0.1129,-0.1146,-0.1143,-0.1155,-0.1144,-0.1147,-0.1141,-0.1151,-0.1153,-0.1154,-0.1157,-0.1155,-0.1122,-0.1093,-0.1151,-0.1149,-0.1035,-0.1032,-0.1029,-0.0975,0,0,0,0,0,0,-0.1165,-0.116,-0.1142,-0.1145,-0.1142,-0.1099,-0.1142,-0.1146,-0.1138,-0.1142,-0.1143,-0.1145,-0.1159,-0.1125,-0.112,-0.1091,-0.1148,-0.1037,-0.1033,-0.103,-0.0979,-0.097,-0.0963,0,0,0,0,0,-0.1167,-0.1127,-0.1141,-0.1136,-0.112,-0.1098,-0.1096,-0.1112,-0.1135,-0.1117,-0.1122,-0.1145,-0.1097,-0.1121,-0.1116,-0.1086,-0.1039,-0.1034,-0.103,-0.0983,-0.0972,-0.0963,0,0,0,0,0,0,-0.1121,-0.1128,-0.1143,-0.1104,-0.11,-0.1105,-0.1082,-0.1101,-0.1089,-0.1094,-0.1115,-0.1115,-0.1078,-0.1079,-0.1105,-0.1038,-0.1072,-0.1066,-0.1038,-0.1028,-0.102,-0.1019,-0.1146,0,0,0,0,0,-0.1106,-0.1087,-0.1095,-0.106,-0.1057,-0.107,-0.1061,-0.1074,-0.107,-0.1069,-0.1072,-0.1067,-0.1051,-0.104,-0.1026,-0.098,-0.098,-0.0957,-0.0949,-0.0942,-0.0936,-0.091,-0.0899,-0.1013,-0.1013,-0.1013,0,0,-0.1075,-0.1077,-0.1064,-0.105,-0.1049,-0.1028,-0.1068,-0.1046,-0.103,-0.1065,-0.1034,-0.1036,-0.1032,-0.0992,-0.0975,-0.0992,-0.0905,-0.0936,-0.0931,-0.0929,-0.0904,-0.0893,-0.0883,-0.1009,-0.101,-0.101,0,0,-0.1008,-0.1009,-0.0978,-0.0975,-0.0972,-0.098,-0.0973,-0.0975,-0.0978,-0.0947,-0.0972,-0.0954,-0.0926,-0.0921,-0.0915,-0.0845,-0.0864,-0.084,-0.0796,-0.0769,-0.076,-0.0752,-0.0724,-0.0715,-0.0834,-0.0834,-0.0834,0,-0.097,-0.0941,-0.096,-0.0935,-0.0927,-0.0958,-0.0926,-0.0922,-0.0914,-0.0908,-0.0928,-0.0892,-0.0892,-0.0849,-0.0832,-0.0827,-0.0817,-0.0839,-0.076,-0.0752,-0.0745,-0.0719,-0.0709,-0.0831,-0.0831,-0.0832,-0.0832,0,-0.0893,-0.0872,-0.0847,-0.0838,-0.0828,-0.08,-0.0813,-0.0801,-0.0814,-0.082,-0.0787,-0.0788,-0.0773,-0.0765,-0.0778,-0.0723,-0.0734,-0.0757,-0.0791,-0.0731,-0.0706,-0.0697,-0.0826,-0.0827,-0.0828,-0.0829,0,0,-0.0796,-0.0797,-0.0787,-0.0782,-0.078,-0.0764,-0.0737,-0.0722,-0.0709,-0.0703,-0.0679,-0.0654,-0.0674,-0.0667,-0.0681,-0.0658,-0.0598,-0.0683,-0.0683,-0.0665,-0.0535,-0.0516,-0.0504,-0.0612,-0.061,-0.0609,-0.0534,0,-0.0729,-0.0681,-0.0697,-0.0649,-0.0628,-0.0657,-0.0632,-0.0628,-0.0632,-0.0615,-0.0621,-0.0602,-0.0631,-0.0627,-0.0606,-0.061,-0.0572,-0.0616,-0.0588,-0.0586,-0.0585,-0.0492,-0.0472,-0.0402,-0.0525,-0.0524,-0.0523,0,-0.0644,-0.0632,-0.0582,-0.0581,-0.0573,-0.0551,-0.0537,-0.0521,-0.0516,-0.0521,-0.0512,-0.053,-0.0501,-0.0537,-0.0497,-0.0526,-0.0516,-0.0516,-0.0514,-0.051,-0.0549,-0.0483,-0.0381,-0.0369,-0.0508,-0.0509,-0.051,0,-0.0575,-0.0548,-0.0513,-0.0508,-0.0507,-0.049,-0.0489,-0.0486,-0.0475,-0.0464,-0.0457,-0.0442,-0.0433,-0.0421,-0.0433,-0.0459,-0.039,-0.0428,-0.0391,-0.0391,-0.0374,-0.0375,-0.0266,-0.0371,-0.0372,-0.0372,-0.0372,0,-0.0497,-0.0464,-0.0482,-0.046,-0.0424,-0.0442,-0.0405,-0.0407,-0.0403,-0.0382,-0.0406,-0.0385,-0.0404,-0.0384,-0.0394,-0.0357,-0.0354,-0.0356,-0.0358,-0.0352,-0.0352,-0.0344,-0.0348,-0.0369,-0.037,-0.037,-0.0371,0,-0.0413,-0.0424,-0.0388,-0.0389,-0.0389,-0.0362,-0.0363,-0.0342,-0.0348,-0.032,-0.0315,-0.0324,-0.0302,-0.0314,-0.0292,-0.0298,-0.025,-0.026,-0.0251,-0.0253,-0.0215,-0.0217,-0.0096,-0.0079,-0.0198,-0.0197,-0.0196,0,-0.0362,-0.0337,-0.0335,-0.0322,-0.0319,-0.0298,-0.0287,-0.0304,-0.0291,-0.0282,-0.0262,-0.0242,-0.0227,-0.019,-0.0194,-0.0176,-0.0185,-0.0144,-0.0182,-0.0176,-0.0181,-0.0181,-0.0178,-0.0135,-0.0134,-0.0133,-0.0132,0,-0.0268,-0.0274,-0.0257,-0.0241,-0.0227,-0.0216,-0.0206,-0.0194,-0.021,-0.0195,-0.0172,-0.016,-0.0136,-0.0115,-0.0099,-0.0097,-0.0116,-0.012,-0.011,-0.0102,-0.0097,-0.0096,-0.0227,-0.0122,-0.0123,-0.0124,-0.0124,-0.0125,-0.0197,-0.0175,-0.017,-0.015,-0.0144,-0.0134,-0.0114,-0.0117,-0.0099,-0.008,-0.0091,-0.0064,-0.0058,-0.0038,-0.0033,-0.0011,-0.0028,-0.0014,-0.001,-0.0006,0.0,-0.0102,-0.0009,-0.0009,-0.001,-0.001,-0.001,0,-0.0102,-0.01,-0.0081,-0.0066,-0.005,-0.007,-0.006,-0.0044,-0.002,-0.0012,0.0004,0.0031,0.0052,0.005,0.0069,0.0087,0.0079,0.0093,0.0093,0.0094,0.0012,0.0003,0.01,0.01,0.01,0.01,0.0099,0.0099,-0.0051,-0.0014,-0.0019,0.0021,0.0023,0.005,0.0058,0.0067,0.0074,0.0105,0.0123,0.0121,0.0125,0.0145,0.0164,0.0163,0.0173,0.019,0.0187,0.011,0.01,0.0089,0.0081,0.0192,0.0192,0.0267,0.0268,0.0268]},{"header":{"parameterUnit":"m.s-1","parameterCategory":1,"la1":30.2991,"la2":30.254,"lo1":-89.0895,"lo2":-89.0444,"dy":0.0017,"dx":0.0017,"nx":28,"ny":28,"refTime":"2023-11-06T09:00:00:Z","depth":0,"parameterNumber":3,"parameterNumberName":"V-component_of_WINDS"},"data":[0,0,0,0,0,0,0,0,0,0,0,0,0,0,0,0,0,0,0,0,0,0,0,0,0,0,0,0,0,0,0,0,0,0,0,0,0,0,0,0,0,0,0,0,0,0,0,0,0,0,0,0,0,0,0,0,0,0,1.0098,1.0098,0,1.0142,1.0143,1.0143,1.014,1.0139,1.0138,1.0138,1.0185,1.0187,1.0189,0,0,0,0,0,0,0,0,0,0,0,0,0,1.001,1.0012,1.0097,1.0098,1.0099,1.0142,1.0143,1.0143,1.014,1.0139,1.0138,1.0137,1.0185,1.0187,1.0189,0,0,0,0,0,0,0,0,0,0,0,0,0,1.0051,1.0012,1.0097,1.0102,1.0103,1.0142,1.0143,1.0144,1.014,1.0139,1.0138,1.0137,1.0184,1.0187,1.019,1.0228,0,0,1.0198,1.0199,0,0,0,0,0,0,0,0,1.0049,1.0054,1.0101,1.0102,1.0103,1.0134,1.0129,1.0172,1.014,1.0126,1.0138,1.0136,1.0169,1.0173,1.0184,1.023,1.0232,1.0198,1.02,1.0201,1.0202,0,0,0,0,0,0,0,1.0046,1.0052,1.0115,1.0101,1.0103,1.0102,1.0107,1.0137,1.0153,1.0127,1.0127,1.0132,1.017,1.0181,1.0185,1.0233,1.0198,1.0201,1.0203,1.0204,1.0313,1.0314,0,0,0,0,0,0,1.0042,1.005,1.0114,1.0117,1.0073,1.0105,1.011,1.0125,1.0152,1.0156,1.0133,1.0132,1.0177,1.0182,1.0187,1.0234,1.0201,1.0204,1.0206,1.0312,1.0313,1.0315,0,0,0,0,0,0,1.004,1.0047,1.0112,1.0083,1.0091,1.0107,1.0125,1.0127,1.0138,1.0157,1.016,1.0142,1.0176,1.0183,1.0218,1.0236,1.0205,1.0208,1.0311,1.0312,1.0314,1.0329,0,0,0,0,0,0,1.0037,1.0047,1.0061,1.0084,1.0093,1.0142,1.0126,1.0128,1.0143,1.0142,1.0166,1.0169,1.0176,1.0213,1.022,1.0239,1.021,1.0309,1.0311,1.0313,1.0327,1.0331,1.0335,0,0,0,0,0,1.0034,1.0064,1.0062,1.007,1.0111,1.0143,1.0148,1.0155,1.0144,1.0159,1.0171,1.0168,1.0232,1.0217,1.0225,1.0245,1.0308,1.0311,1.0313,1.0326,1.0331,1.0335,0,0,0,0,0,0,1.0044,1.0067,1.0065,1.0103,1.0121,1.0142,1.0161,1.016,1.0182,1.018,1.0188,1.0193,1.0229,1.024,1.0222,1.0284,1.0269,1.0273,1.0276,1.028,1.0284,1.0282,1.0213,0,0,0,0,0,1.005,1.0074,1.0093,1.0124,1.0133,1.0146,1.016,1.0163,1.0182,1.019,1.0205,1.0224,1.0249,1.0265,1.0288,1.0328,1.0334,1.0346,1.035,1.0353,1.0357,1.0381,1.0386,1.0323,1.0323,1.0323,0,0,1.0064,1.008,1.0094,1.0126,1.0141,1.0166,1.0152,1.0179,1.0197,1.0194,1.0229,1.024,1.0262,1.03,1.0317,1.031,1.0376,1.0356,1.0358,1.0361,1.0384,1.039,1.0395,1.0325,1.0325,1.0325,0,0,1.0103,1.0116,1.0144,1.0159,1.018,1.0188,1.0195,1.0216,1.0224,1.0258,1.0256,1.0279,1.032,1.0337,1.035,1.0394,1.0393,1.0401,1.0422,1.0445,1.045,1.0454,1.0472,1.0478,1.0405,1.0405,1.0405,0,1.0118,1.0155,1.0159,1.0186,1.0201,1.0198,1.0227,1.0241,1.027,1.028,1.0271,1.0324,1.0339,1.0381,1.0392,1.0402,1.0411,1.04,1.0449,1.0453,1.0457,1.0474,1.0481,1.0406,1.0406,1.0406,1.0406,0,1.0173,1.0198,1.0218,1.0246,1.0262,1.029,1.0299,1.0316,1.0317,1.0326,1.0361,1.0378,1.0406,1.0416,1.0418,1.0459,1.0454,1.0447,1.0432,1.0464,1.0481,1.0487,1.0408,1.0407,1.0407,1.0407,0,0,1.0221,1.0249,1.0257,1.027,1.0293,1.0313,1.034,1.0367,1.0381,1.04,1.0425,1.046,1.0454,1.0469,1.0473,1.0492,1.0528,1.0483,1.0483,1.0492,1.0576,1.0583,1.059,1.0526,1.0527,1.0528,1.0575,0,1.0263,1.0312,1.0317,1.0361,1.0386,1.0383,1.0407,1.0424,1.0433,1.0455,1.0465,1.049,1.0479,1.0488,1.0507,1.0519,1.0545,1.0516,1.0551,1.0552,1.0548,1.0598,1.0606,1.065,1.0581,1.0582,1.0583,0,1.032,1.0341,1.0388,1.0408,1.0418,1.044,1.0464,1.0485,1.0505,1.051,1.0526,1.0527,1.0557,1.0539,1.0581,1.0561,1.0575,1.0583,1.0585,1.059,1.0571,1.0608,1.0663,1.0671,1.0592,1.0592,1.0591,0,1.0353,1.0392,1.0426,1.0436,1.046,1.0476,1.0486,1.0505,1.052,1.0541,1.0552,1.0576,1.059,1.061,1.0618,1.0604,1.0659,1.0642,1.0666,1.0666,1.068,1.068,1.0742,1.0685,1.0685,1.0685,1.0685,0,1.0402,1.0431,1.0441,1.0462,1.0495,1.0499,1.0532,1.0542,1.0558,1.0581,1.0579,1.0601,1.0609,1.0632,1.0638,1.0673,1.0679,1.0685,1.0687,1.0687,1.0686,1.0698,1.0696,1.0687,1.0686,1.0686,1.0686,0,1.0446,1.0454,1.049,1.0509,1.0514,1.0538,1.0555,1.0575,1.0582,1.0612,1.0619,1.0632,1.0659,1.0668,1.0701,1.0705,1.0747,1.0744,1.074,1.0741,1.0765,1.0764,1.0839,1.085,1.0784,1.0785,1.0785,0,1.0478,1.0501,1.0522,1.0537,1.0548,1.0572,1.0588,1.0592,1.0609,1.0632,1.065,1.0677,1.0699,1.0744,1.0757,1.0782,1.0782,1.0806,1.0786,1.0786,1.0786,1.0785,1.0788,1.0811,1.0812,1.0813,1.0813,0,1.0535,1.0537,1.0559,1.0583,1.0602,1.0621,1.0639,1.0651,1.0659,1.0677,1.0705,1.0722,1.0756,1.0783,1.0809,1.0821,1.0819,1.0819,1.0826,1.0828,1.0826,1.083,1.0753,1.0818,1.0817,1.0817,1.0817,1.0817,1.0576,1.0596,1.0614,1.0639,1.0653,1.067,1.069,1.07,1.0723,1.075,1.0751,1.0782,1.0801,1.0835,1.0848,1.0873,1.0866,1.0876,1.0879,1.0882,1.0886,1.0819,1.0877,1.0877,1.0877,1.0877,1.0877,0,1.0635,1.0646,1.0668,1.0694,1.0713,1.0707,1.0727,1.0745,1.0771,1.0788,1.081,1.0842,1.0869,1.0883,1.0909,1.0926,1.0926,1.0933,1.0934,1.0937,1.0889,1.0881,1.0933,1.0933,1.0933,1.0933,1.0933,1.0933,1.0668,1.0702,1.0706,1.0748,1.0758,1.0788,1.08,1.0816,1.083,1.0866,1.0887,1.0895,1.0912,1.0939,1.0964,1.0967,1.0978,1.0987,1.099,1.0946,1.094,1.0935,1.0927,1.0989,1.0989,1.1036,1.1037,1.1037]}]]